[[{"header":{"parameterUnit":"m.s-1","parameterCategory":1,"la1":30.2991,"la2":30.254,"lo1":-89.0895,"lo2":-89.0444,"dy":0.0017,"dx":0.0017,"nx":28,"ny":28,"refTime":"2023-08-19T03:00:00:Z","depth":0,"parameterNumber":2,"parameterNumberName":"U-component_of_WINDS"},"data":[0,0,0,0,0,0,0,0,0,0,0,0,0,0,0,0,0,0,0,0,0,0,0,0,0,0,0,0,0,0,0,0,0,0,0,0,0,0,0,0,0,0,0,0,0,0,0,0,0,0,0,0,0,0,0,0,0,0,2.2098,2.2099,0,2.2231,2.2232,2.2234,2.2222,2.222,2.2218,2.2216,2.236,2.2366,2.2371,0,0,0,0,0,0,0,0,0,0,0,0,0,2.1839,2.1844,2.2097,2.2099,2.2101,2.2231,2.2232,2.2234,2.2222,2.222,2.2217,2.2215,2.2358,2.2365,2.2372,0,0,0,0,0,0,0,0,0,0,0,0,0,2.196,2.1846,2.2097,2.211,2.2113,2.223,2.2232,2.2235,2.2223,2.222,2.2217,2.2214,2.2356,2.2364,2.2373,2.2488,0,0,2.2399,2.2403,0,0,0,0,0,0,0,0,2.1953,2.197,2.2107,2.211,2.2113,2.2206,2.2194,2.232,2.2224,2.2181,2.2216,2.2212,2.2312,2.2324,2.2356,2.2495,2.2501,2.24,2.2405,2.2409,2.2411,0,0,0,0,0,0,0,2.1945,2.1964,2.215,2.2109,2.2112,2.2112,2.2126,2.2218,2.2263,2.2185,2.2184,2.22,2.2313,2.2348,2.2359,2.2503,2.24,2.2407,2.2413,2.2416,2.2743,2.2746,0,0,0,0,0,0,2.1933,2.1957,2.2146,2.2154,2.2023,2.2119,2.2134,2.218,2.2262,2.2271,2.2202,2.2199,2.2334,2.2349,2.2364,2.2504,2.2409,2.2417,2.2422,2.2739,2.2743,2.2747,0,0,0,0,0,0,2.1927,2.1949,2.2141,2.2056,2.208,2.2127,2.2178,2.2184,2.2218,2.2275,2.2283,2.2229,2.2333,2.2352,2.2457,2.2509,2.2421,2.2429,2.2735,2.274,2.2745,2.2784,0,0,0,0,0,0,2.192,2.1948,2.199,2.2056,2.2084,2.2229,2.2181,2.2189,2.2232,2.2229,2.2302,2.2311,2.2332,2.2444,2.2465,2.2519,2.2435,2.2731,2.2737,2.2744,2.2778,2.279,2.28,0,0,0,0,0,2.191,2.1997,2.1992,2.2015,2.2138,2.2232,2.2248,2.2268,2.2237,2.2281,2.2317,2.2309,2.25,2.2455,2.2479,2.2536,2.2727,2.2735,2.2743,2.2773,2.2788,2.28,0,0,0,0,0,0,2.1938,2.2006,2.2001,2.2112,2.2166,2.2229,2.2286,2.2282,2.2348,2.2342,2.2366,2.2383,2.2488,2.2523,2.2471,2.2651,2.261,2.2623,2.2625,2.2639,2.2649,2.2638,2.2442,0,0,0,0,0,2.1957,2.2025,2.2082,2.2174,2.2201,2.2239,2.228,2.2291,2.2349,2.2372,2.2416,2.2474,2.2547,2.2595,2.2665,2.2783,2.2799,2.2835,2.2846,2.2854,2.2865,2.293,2.2946,2.2773,2.2773,2.2773,0,0,2.1997,2.2042,2.2084,2.2181,2.2224,2.2296,2.2258,2.2336,2.239,2.2385,2.2485,2.2519,2.2586,2.2698,2.2749,2.273,2.2917,2.2864,2.2871,2.2877,2.294,2.2956,2.2971,2.2778,2.2777,2.2776,0,0,2.2106,2.2147,2.2228,2.2271,2.2336,2.2361,2.238,2.2444,2.2466,2.2567,2.2564,2.263,2.2755,2.2803,2.2843,2.297,2.2966,2.2993,2.3049,2.3112,2.3126,2.3138,2.3183,2.3199,2.3004,2.3004,2.3004,0,2.2148,2.2254,2.2271,2.2349,2.2391,2.2387,2.247,2.2513,2.2598,2.2629,2.2606,2.2762,2.2807,2.2929,2.296,2.2993,2.3017,2.2985,2.3122,2.3135,2.3146,2.3189,2.3206,2.3007,2.3007,2.3006,2.3006,0,2.2302,2.2376,2.2434,2.2513,2.2563,2.2643,2.2674,2.2723,2.2729,2.2757,2.286,2.2913,2.2994,2.3024,2.3032,2.3148,2.3134,2.3116,2.3075,2.3165,2.3206,2.3223,2.3011,2.301,2.3009,2.3008,0,0,2.2432,2.2519,2.254,2.2576,2.2647,2.2706,2.2787,2.2863,2.2904,2.2964,2.3033,2.3139,2.3122,2.3169,2.3182,2.3238,2.3334,2.3213,2.3215,2.3233,2.3465,2.3477,2.3495,2.3331,2.3335,2.3337,2.3459,0,2.2547,2.2687,2.2705,2.283,2.2899,2.2897,2.2967,2.302,2.3048,2.3112,2.3144,2.3218,2.3191,2.3219,2.3274,2.3311,2.3381,2.3302,2.3397,2.34,2.3379,2.3517,2.353,2.3642,2.3475,2.3478,2.348,0,2.27,2.2761,2.2893,2.2954,2.2983,2.3046,2.3118,2.3179,2.3239,2.3255,2.3306,2.3313,2.3398,2.3353,2.3472,2.3418,2.3458,2.3482,2.3487,2.3496,2.3445,2.3529,2.3678,2.3695,2.3505,2.3503,2.3501,0,2.2781,2.2896,2.2989,2.3021,2.3095,2.3139,2.3172,2.3229,2.3274,2.3337,2.3367,2.3441,2.3481,2.3539,2.3565,2.353,2.3682,2.364,2.3699,2.3699,2.3731,2.3728,2.3888,2.3758,2.3758,2.3758,2.3757,0,2.2907,2.2988,2.3026,2.3084,2.3174,2.3195,2.3285,2.3317,2.3367,2.3432,2.3436,2.3497,2.3529,2.3596,2.3618,2.3712,2.3731,2.3748,2.3753,2.3747,2.3745,2.3773,2.3766,2.3762,2.3761,2.376,2.376,0,2.3012,2.3041,2.3142,2.3204,2.3221,2.3285,2.3339,2.3395,2.3423,2.3505,2.3525,2.3569,2.3648,2.368,2.3778,2.3792,2.3901,2.39,2.3879,2.3881,2.3938,2.3932,2.4121,2.4146,2.4001,2.4002,2.4003,0,2.309,2.3151,2.3219,2.3261,2.3295,2.3364,2.3409,2.3433,2.3481,2.3553,2.3601,2.3679,2.3742,2.3869,2.3911,2.3985,2.3986,2.4047,2.3997,2.3989,2.3986,2.3981,2.3987,2.4056,2.4057,2.4058,2.4059,0,2.3226,2.3237,2.33,2.337,2.3423,2.3479,2.3534,2.3569,2.3602,2.3655,2.3734,2.3783,2.3881,2.3958,2.4035,2.4072,2.4071,2.4075,2.4092,2.4086,2.4071,2.4079,2.3903,2.407,2.4069,2.4068,2.4068,2.4067,2.3319,2.3373,2.3428,2.35,2.3543,2.3594,2.3649,2.3683,2.3749,2.3829,2.384,2.3924,2.3984,2.4086,2.4126,2.4193,2.4178,2.4204,2.421,2.4216,2.4219,2.4061,2.4208,2.4208,2.4207,2.4207,2.4207,0,2.3453,2.3489,2.3554,2.3629,2.3686,2.3679,2.3739,2.3787,2.386,2.3915,2.3976,2.4067,2.4143,2.419,2.4266,2.4311,2.4313,2.4331,2.4327,2.4335,2.4229,2.4205,2.4328,2.4328,2.4328,2.4328,2.4328,2.4327,2.353,2.3621,2.3639,2.3752,2.3787,2.3868,2.3903,2.3951,2.3994,2.4095,2.4156,2.4186,2.4238,2.4318,2.4387,2.4399,2.4427,2.4445,2.4456,2.4356,2.4343,2.4331,2.4309,2.4451,2.4451,2.4557,2.4558,2.4558]},{"header":{"parameterUnit":"m.s-1","parameterCategory":1,"la1":30.2991,"la2":30.254,"lo1":-89.0895,"lo2":-89.0444,"dy":0.0017,"dx":0.0017,"nx":28,"ny":28,"refTime":"2023-08-19T03:00:00:Z","depth":0,"parameterNumber":3,"parameterNumberName":"V-component_of_WINDS"},"data":[0,0,0,0,0,0,0,0,0,0,0,0,0,0,0,0,0,0,0,0,0,0,0,0,0,0,0,0,0,0,0,0,0,0,0,0,0,0,0,0,0,0,0,0,0,0,0,0,0,0,0,0,0,0,0,0,0,0,3.7565,3.7566,0,3.7667,3.7668,3.7669,3.7633,3.7631,3.7629,3.7627,3.7728,3.7733,3.7737,0,0,0,0,0,0,0,0,0,0,0,0,0,3.7331,3.7336,3.7565,3.7566,3.7567,3.7667,3.7668,3.767,3.7634,3.7631,3.7628,3.7626,3.7726,3.7732,3.7738,0,0,0,0,0,0,0,0,0,0,0,0,0,3.7433,3.7337,3.7565,3.7562,3.7562,3.7667,3.7668,3.767,3.7634,3.7631,3.7628,3.7624,3.7724,3.7731,3.7739,3.7851,0,0,3.7761,3.7764,0,0,0,0,0,0,0,0,3.7427,3.7442,3.7561,3.7562,3.7563,3.7634,3.7623,3.7731,3.7635,3.7607,3.7627,3.7623,3.7699,3.7708,3.7735,3.7856,3.786,3.7761,3.7766,3.7769,3.7771,0,0,0,0,0,0,0,3.742,3.7437,3.7605,3.7562,3.7564,3.7553,3.7563,3.7643,3.7671,3.7609,3.7607,3.762,3.7699,3.7728,3.7737,3.7862,3.7761,3.7767,3.7772,3.7775,3.8072,3.8075,0,0,0,0,0,0,3.7414,3.7431,3.7602,3.7608,3.7486,3.756,3.7572,3.7615,3.767,3.7675,3.7622,3.7617,3.7717,3.7729,3.774,3.787,3.7769,3.7775,3.778,3.8068,3.8072,3.8076,0,0,0,0,0,0,3.7409,3.7429,3.7598,3.7519,3.754,3.7567,3.7616,3.7618,3.7647,3.768,3.7684,3.7647,3.7715,3.773,3.7822,3.7873,3.7779,3.7785,3.8064,3.8069,3.8074,3.8133,0,0,0,0,0,0,3.7402,3.7428,3.7473,3.7521,3.7544,3.768,3.7619,3.7623,3.766,3.7655,3.7704,3.7709,3.7714,3.7812,3.7829,3.7881,3.7791,3.8059,3.8066,3.8073,3.8127,3.814,3.8151,0,0,0,0,0,3.7394,3.7486,3.7475,3.7496,3.7601,3.7684,3.7697,3.7701,3.7665,3.7708,3.7728,3.7707,3.7865,3.7821,3.7841,3.7896,3.8056,3.8064,3.8072,3.8121,3.8138,3.8151,0,0,0,0,0,0,3.7444,3.7493,3.7481,3.7592,3.7634,3.7677,3.7733,3.7719,3.7772,3.7764,3.7766,3.7778,3.7871,3.7893,3.7843,3.8004,3.7955,3.7967,3.7985,3.8001,3.8013,3.8004,3.7797,0,0,0,0,0,3.7468,3.7532,3.7571,3.7665,3.7686,3.7706,3.7742,3.7741,3.7784,3.7802,3.7829,3.787,3.7928,3.7966,3.8022,3.8131,3.8138,3.8178,3.819,3.82,3.8209,3.8261,3.8278,3.8103,3.8103,3.8102,0,0,3.7518,3.7553,3.7593,3.7675,3.7708,3.7771,3.7721,3.7792,3.7838,3.7812,3.7899,3.792,3.7966,3.8065,3.811,3.8086,3.8259,3.821,3.8218,3.8222,3.8271,3.8288,3.8302,3.8108,3.8107,3.8106,0,0,3.764,3.7676,3.7754,3.7787,3.7836,3.7848,3.7866,3.7912,3.7924,3.8012,3.7992,3.8046,3.8148,3.8179,3.8208,3.8337,3.8317,3.8355,3.8417,3.8468,3.8482,3.8494,3.8534,3.8549,3.8365,3.8365,3.8365,0,3.7696,3.7792,3.7797,3.7867,3.7901,3.7881,3.7957,3.7989,3.8054,3.8076,3.8049,3.8172,3.8203,3.8305,3.8336,3.8362,3.838,3.8348,3.848,3.8492,3.8504,3.8542,3.8558,3.8369,3.8369,3.8368,3.8368,0,3.7855,3.7922,3.7979,3.804,3.8081,3.8155,3.8167,3.8208,3.8202,3.8216,3.8302,3.8337,3.8396,3.8421,3.8418,3.8522,3.8504,3.848,3.8429,3.8524,3.8559,3.8575,3.8375,3.8373,3.8372,3.8371,0,0,3.8012,3.8072,3.8092,3.8117,3.8168,3.8218,3.8289,3.8347,3.8378,3.8423,3.8479,3.8563,3.8538,3.8571,3.8571,3.8616,3.8708,3.8584,3.8585,3.8602,3.8818,3.8833,3.885,3.8697,3.87,3.8702,3.8812,0,3.8134,3.8259,3.8262,3.8375,3.8432,3.8412,3.8472,3.8508,3.8521,3.8571,3.8585,3.8643,3.8609,3.8627,3.8672,3.8688,3.8751,3.8681,3.8744,3.8747,3.8729,3.887,3.8888,3.899,3.8826,3.8829,3.8831,0,3.8294,3.8341,3.8459,3.8495,3.852,3.8574,3.8624,3.8674,3.8711,3.8718,3.8752,3.8744,3.8811,3.8762,3.8852,3.8804,3.883,3.8841,3.8845,3.8848,3.8792,3.8872,3.9023,3.9037,3.8854,3.8852,3.885,0,3.8389,3.8483,3.8564,3.8586,3.8633,3.867,3.8691,3.8726,3.8759,3.8802,3.8822,3.8874,3.8901,3.8939,3.8942,3.8907,3.9031,3.8983,3.9034,3.9034,3.9059,3.9056,3.9212,3.9084,3.9083,3.9083,3.9083,0,3.8522,3.8594,3.8606,3.8656,3.8733,3.8735,3.8811,3.8829,3.8859,3.8908,3.8895,3.8941,3.8946,3.8993,3.8996,3.9067,3.9081,3.9084,3.9083,3.9083,3.9082,3.9097,3.9089,3.9087,3.9086,3.9085,3.9085,0,3.8641,3.8653,3.8739,3.8774,3.8785,3.884,3.8869,3.8914,3.8925,3.8988,3.9002,3.9019,3.9073,3.9081,3.9146,3.9147,3.923,3.9225,3.9217,3.9215,3.9263,3.9256,3.943,3.9451,3.9314,3.9315,3.9316,0,3.8723,3.8777,3.8818,3.885,3.8872,3.8925,3.8957,3.896,3.8993,3.9038,3.9076,3.9129,3.9171,3.9257,3.9273,3.9321,3.9313,3.937,3.932,3.9316,3.9307,3.9302,3.9305,3.9379,3.938,3.9382,3.9383,0,3.8866,3.8867,3.8915,3.8963,3.9002,3.9041,3.9077,3.9103,3.911,3.9148,3.9203,3.9235,3.9298,3.9348,3.9394,3.9413,3.9397,3.9399,3.9412,3.941,3.9401,3.9401,3.9238,3.9394,3.9393,3.9392,3.9392,3.9391,3.8965,3.9009,3.9043,3.9095,3.9122,3.9154,3.9197,3.9212,3.9258,3.9309,3.9308,3.9366,3.9398,3.9458,3.9479,3.9523,3.9504,3.9525,3.9529,3.9533,3.9535,3.9398,3.9532,3.9532,3.9531,3.9531,3.9531,0,3.9101,3.9121,3.9169,3.9218,3.9258,3.9241,3.9279,3.9312,3.9363,3.9395,3.9435,3.9495,3.9542,3.9562,3.9607,3.9638,3.9632,3.965,3.9645,3.9648,3.9552,3.9533,3.9654,3.9654,3.9654,3.9653,3.9653,3.9653,3.9177,3.9249,3.9254,3.9338,3.9357,3.9414,3.9436,3.9464,3.9488,3.9556,3.9595,3.9607,3.9632,3.9679,3.972,3.9724,3.9739,3.9759,3.976,3.9669,3.9656,3.9644,3.9626,3.9764,3.9764,3.9852,3.9853,3.9853]}]]